Regional Weather Roundup
Issued by NWS Green Bay, WI

Home | Current Version | Previous Version | Text Only | Print | Product List | Glossary On
Versions: 1 2 3 4 5 6 7 8 9 10 11 12 13 14 15 16 17 18 19 20 21 22 23 24 25 26 27 28 29 30 31 32 33 34 35 36 37 38 39 40 41 42 43 44 45 46 47 48 49 50
000
ASUS43 KGRB 290000
RWRGRB

NORTH-CENTRAL AND NORTHEAST WISCONSIN REGIONAL WEATHER ROUNDUP
NATIONAL WEATHER SERVICE GREEN BAY WI
700 PM CDT TUE MAR 28 2017

WIZ005-009-010>012-018-019-290100-
NORTH CENTRAL WISCONSIN

CITY           SKY/WX    TMP DP  RH WIND       PRES   REMARKS
IRONWOOD       CLEAR     53  26  35 N3        30.18R
MANITOWISH WTR NOT AVBL
ARBOR VITAE    NOT AVBL
EAGLE RIVER    NOT AVBL
LAND O LAKES   NOT AVBL
RHINELANDER    CLEAR     57  22  25 CALM      30.16R
PHILLIPS       NOT AVBL
ANTIGO         NOT AVBL
TOMAHAWK       NOT AVBL
MERRILL        NOT AVBL
$$

WIZ013-073-290100-
NORTHEAST WISCONSIN

CITY           SKY/WX    TMP DP  RH WIND       PRES   REMARKS
IRON MOUNTAIN  MOCLDY    54  28  36 NE10G17   30.16R
MARINETTE        N/A    N/A N/A N/A MISG        N/A
$$

WIZ017-030-035>037-045-290100-
CENTRAL WISCONSIN

CITY           SKY/WX    TMP DP  RH WIND       PRES   REMARKS
MEDFORD        NOT AVBL
WAUSAU         CLEAR     56  27  32 NE3       30.14R
MOSINEE        CLEAR     54  30  40 VRB6      30.16R
MARSHFIELD     CLEAR     54  32  43 NE3       30.15R
WISC RAPIDS    CLEAR     56  27  32 SE10      30.17R
STEVENS POINT  NOT AVBL
WAUPACA        NOT AVBL
SHAWANO        NOT AVBL
CLINTONVILLE   NOT AVBL
WAUTOMA        CLEAR     53  34  48 E6        30.18R
$$

WIZ038-039-048-051-290100-
FOX VALLEY

CITY           SKY/WX    TMP DP  RH WIND       PRES   REMARKS
NWS GREEN BAY  CLEAR     47  39  74 NE7       30.20R
APPLETON       PTCLDY    50  25  37 NE8       30.17R
OSHKOSH        CLEAR     49  35  58 NE9       30.18R
FOND DU LAC    CLEAR     50  36  58 N8        30.18R
$$

WIZ022-050-052-290100-
EAST CENTRAL WISCONSIN

CITY           SKY/WX    TMP DP  RH WIND       PRES   REMARKS
EPHRAIM        NOT AVBL
WASHINGTON ISL NOT AVBL
STURGEON BAY   CLEAR     38  35  89 CALM      30.18F
MANITOWOC      NOT AVBL
SHEBOYGAN      FOG       35  34  96 NE7       30.20R VSB 1/4
$$

LMZ563-521-522-541>543-290100-
LAKESHORE

STATION/POSITION TIME  TEMP    WIND        PRES    VSBY  WAVE
                       AIR SEA DIR/SP/G                  HT/PER
                 (UTC) (F)     (DEG/KT/KT) (MB)    (MI)  (FT/S)
SHEBOYGAN LKSHOR 2300   34      10/ 12/ 13 1022.9R
KEWAUNEE LKSHORE 2330   33      CALM  /  5 1022.4S
NORTHPORT PIER   2340   34     160/  1/  5 1022.7R
CHAMBERS ISLAND  2340   37     220/  2/  3 1022.4R
MENOMINEE LKSHOR 2330   36     180/  2/  2 1021.6R
$$



USA.gov is the U.S. government's official web portal to all federal, state and local government web resources and services.